Location: Newark
(50.0306°N, 2.3272°E)
Time: 19:06:48
(UTC+00:00)

Vanguard 1 Rocket - Pass Details

Date: 16 December 2019
Orbit: 651 x 4226 km, 34.3° (Epoch: 28 January)

Event Time Altitude Azimuth Distance (km) Brightness Sun altitude
Rises 18:49:28 0° 227° (SW) 8,433 13.0 -27.6°
Reaches altitude 10° 18:56:20 10° 220° (SW) 7,221 12.4 -28.7°
Maximum altitude 19:15:47 37° 165° (SSE) 4,119 10.5 -31.9°
Enters shadow 19:20:13 32° 138° (SE) 3,923 10.2 -32.6°
Drops below altitude 10° 19:27:54 10° 104° (ESE) 4,581 - -33.8°
Sets 19:31:05 0° 96° (E) 5,175 - -34.3°
